Location: Vancouver
(49.2500°N, 123.1330°W)
Time: 19:04:06
(UTC-07:00)

ISS - Visible Passes

Search period start: 29 July 2015 00:00
Search period end: 08 August 2015 00:00
Orbit: 401 x 403 km, 51.6° (Epoch: 29 July)

Date Brightness Start Highest point End Pass type
(mag) Time Alt. Az. Time Alt. Az. Time Alt. Az.
29 Jul -2.7 01:50:46 55° NNW 01:50:56 56° N 01:54:10 10° ENE visible
29 Jul -3.1 03:24:19 10° WNW 03:27:36 71° NNE 03:30:52 10° E visible
29 Jul -2.6 05:00:54 10° W 05:03:54 33° SSW 05:06:52 10° SSE visible
30 Jul -1.3 00:59:50 22° ENE 00:59:50 22° ENE 01:01:10 10° ENE visible
30 Jul -2.8 02:32:28 19° WNW 02:34:34 58° N 02:37:49 10° E visible
30 Jul -3.2 04:07:50 10° WNW 04:11:02 52° SSW 04:14:13 10° SE visible
30 Jul -2.3 22:26:01 10° SSW 22:28:43 25° SE 22:29:33 22° ESE visible
31 Jul -1.1 00:01:39 10° WSW 00:09:40 - ENE 00:02:28 17° WSW visible
31 Jul -2.2 01:42:23 39° NE 01:42:23 39° NE 01:44:46 10° E visible
31 Jul -3.5 03:15:07 12° WNW 03:18:07 79° SSW 03:21:23 10° ESE visible
31 Jul -1.8 04:51:49 10° W 04:54:11 18° SW 04:56:29 10° S visible
31 Jul -1.6 21:33:59 10° S 21:35:57 15° SE 21:37:59 10° E visible
31 Jul -3.5 23:08:43 10° WSW 23:11:57 69° SSE 23:14:28 16° ENE visible
01 Aug -1.8 00:45:17 10° W 00:47:10 30° WNW 00:47:10 30° WNW visible
01 Aug -0.7 02:28:01 13° ESE 02:28:01 13° ESE 02:28:25 10° ESE visible
01 Aug -2.5 04:00:59 28° SW 04:01:24 29° SW 04:04:16 10° SSE visible
01 Aug -3.1 22:15:56 10° SW 22:19:03 45° SSE 22:22:12 10° ENE visible
01 Aug -2.9 23:52:13 10° W 23:55:28 62° N 23:56:43 33° ENE visible
02 Aug -0.6 01:28:53 10° WNW 01:29:20 13° WNW 01:29:20 13° WNW visible
02 Aug -2.4 21:23:23 10° SSW 21:26:13 28° SE 21:29:05 10° E visible
02 Aug -3.3 22:59:12 10° WSW 23:02:28 77° NNW 23:05:43 10° ENE visible
03 Aug -2.2 00:35:53 10° WNW 00:38:19 41° NW 00:38:19 41° NW visible
03 Aug -3.4 22:06:15 10° WSW 22:09:29 77° SSE 22:12:46 10° ENE visible
03 Aug -2.6 23:42:51 10° W 23:46:04 54° N 23:47:10 34° ENE visible
04 Aug -0.5 01:19:25 10° WNW 01:19:46 12° WNW 01:19:46 12° WNW visible
04 Aug -2.8 22:49:48 10° W 22:53:02 59° N 22:55:58 12° ENE visible
05 Aug -1.9 00:26:27 10° WNW 00:28:33 36° WNW 00:28:33 36° WNW visible
05 Aug -3.1 21:56:46 10° W 22:00:02 72° NNW 22:03:18 10° ENE visible
05 Aug -2.7 23:33:27 10° WNW 23:36:40 55° N 23:37:20 45° NE visible
06 Aug -2.6 22:40:25 10° W 22:43:38 53° N 22:46:06 16° ENE visible
07 Aug -1.6 00:16:58 10° WNW 00:18:41 28° WNW 00:18:41 28° WNW visible
07 Aug -2.7 21:47:23 10° W 21:50:36 57° N 21:53:50 10° ENE visible
07 Aug -3.2 23:24:00 10° WNW 23:27:16 68° NNE 23:27:28 65° NE visible
